Change the Weather History Date:

Sunday, December 8, 2013

  Actual Average Record
Temperature  
Mean Temperature -4 °F 18 °F  
Max Temperature 8 °F 27 °F 54 °F (1939)
Min Temperature -16 °F 10 °F -22 °F (1978)
Degree Days  
Heating Degree Days 69 47  
Month to date heating degree days 433 362  
Since 1 July heating degree days 2306 2287  
Cooling Degree Days 0 0  
Month to date cooling degree days 0 0  
Year to date cooling degree days 578 465  
Moisture  
Dew Point -3 °F    
Average Humidity 87    
Maximum Humidity 95    
Minimum Humidity 78    
Precipitation  
Precipitation 0.10 in 0.03 in 0.40 in (1963)
Month to date precipitation 0.95 0.24  
Year to date precipitation 28.02 27.15  
Snow  
Snow 0.80 in 0.30 in 5.10 in (1963)
Month to date snowfall 7.2 2.5  
Since 1 July snowfall 10.8 11.7  
Snow Depth 5.00 in    
Sea Level Pressure  
Sea Level Pressure 30.23 in    
Wind  
Wind Speed 3 mph (ESE)    
Max Wind Speed 9 mph    
Max Gust Speed 12 mph    
Visibility 3 miles    
Events Snow    
T = Trace of Precipitation, MM = Missing Value Source: NWS Daily Summary

Daily Weather History Graph

Daily Weather History Graph

Search for Another Location

Airport or City:

Trip Planner

Search our weather history database for the weather conditions in past years. The results will help you decide how hot, cold, wet, or windy it might be!

Date:

Astronomy

Dec. 08, 2013 Rise Set
Actual Time 7:43 AM CST 4:32 PM CST
Civil Twilight 7:09 AM CST 5:06 PM CST
Nautical Twilight 6:32 AM CST 5:43 PM CST
Astronomical Twilight 5:56 AM CST 6:19 PM CST
Moon 11:50 AM CST (12/8) 11:38 PM CST (12/8)
Length of Visible Light 9h 56m
Length of Day
8h 48m
Waxing Crescent, 40% of the Moon is Illuminated
Dec 8
Waxing Crescent
Dec 9
First Quarter
Dec 17
Full
Dec 25
Last Quarter
Jan 1
New

Hourly Weather History & Observations

Time (CST) Temp. Windchill Dew Point Humidity Pressure Visibility Wind Dir Wind Speed Gust Speed Precip Events Conditions
12:53 AM -16.1 °F - -20.0 °F 82% 30.49 in 10.0 mi Calm Calm - N/A   Clear
1:53 AM -13.0 °F - -17.0 °F 82% 30.59 in 10.0 mi Calm Calm - N/A   Overcast
2:53 AM -9.0 °F - -13.0 °F 83% 30.57 in 10.0 mi Calm Calm - N/A   Overcast
3:53 AM -8.0 °F - -11.9 °F 83% 30.53 in 10.0 mi Calm Calm - N/A   Overcast
4:40 AM -5.8 °F -14.5 °F -11.2 °F 77% 30.38 in 2.5 mi East 3.5 mph - 0.00 in Snow Light Snow
4:53 AM -6.0 °F -14.7 °F -9.9 °F 83% 30.50 in 1.8 mi ESE 3.5 mph - 0.00 in Snow Light Snow
5:13 AM -5.8 °F -14.5 °F -9.4 °F 84% 30.37 in 2.0 mi East 3.5 mph - 0.00 in Snow Light Snow
5:53 AM -4.0 °F -14.6 °F -9.0 °F 79% 30.48 in 2.5 mi East 4.6 mph - 0.00 in Snow Light Snow
6:16 AM -4.0 °F -16.3 °F -7.6 °F 85% 30.34 in 1.8 mi ESE 5.8 mph - 0.01 in Snow Light Snow
6:39 AM -2.2 °F -14.2 °F -7.6 °F 78% 30.34 in 2.0 mi ESE 5.8 mph - 0.01 in Snow Light Snow
6:48 AM -2.2 °F -14.2 °F -7.6 °F 78% 30.34 in 1.8 mi ESE 5.8 mph - 0.01 in Snow Light Snow
6:53 AM -2.9 °F -15.0 °F -8.0 °F 79% 30.46 in 1.8 mi ESE 5.8 mph - 0.01 in Snow Light Snow
7:02 AM -2.2 °F -14.2 °F -7.6 °F 78% 30.33 in 1.5 mi East 5.8 mph - 0.00 in Snow Light Snow
7:53 AM -2.9 °F -11.2 °F -7.1 °F 82% 30.45 in 1.5 mi East 3.5 mph - 0.01 in Snow Light Snow
8:10 AM -2.2 °F -14.2 °F -7.6 °F 78% 30.31 in 0.8 mi East 5.8 mph - 0.01 in Snow Light Snow
8:21 AM -2.2 °F -14.2 °F -7.6 °F 78% 30.31 in 1.0 mi East 5.8 mph - 0.01 in Snow Light Snow
8:53 AM -2.0 °F -15.4 °F -7.1 °F 79% 30.43 in 1.0 mi East 6.9 mph - 0.02 in Snow Light Snow
9:24 AM -0.4 °F -10.4 °F -5.8 °F 78% 30.30 in 0.8 mi East 4.6 mph - 0.00 in Snow Light Snow
9:39 AM -0.4 °F -10.4 °F -5.8 °F 78% 30.29 in 1.0 mi East 4.6 mph - 0.01 in Snow Light Snow
9:53 AM -0.0 °F -11.6 °F -5.1 °F 79% 30.41 in 1.2 mi East 5.8 mph - 0.01 in Snow Light Snow
10:28 AM 1.4 °F -8.3 °F -4.0 °F 78% 30.27 in 2.0 mi Variable 4.6 mph - 0.01 in Snow Light Snow
10:44 AM 1.4 °F -9.9 °F -2.2 °F 85% 30.27 in 1.5 mi ESE 5.8 mph - 0.01 in Snow Light Snow
10:53 AM 1.9 °F -9.2 °F -2.9 °F 80% 30.39 in 1.8 mi East 5.8 mph - 0.01 in Snow Light Snow
11:13 AM 3.2 °F -9.1 °F -2.2 °F 78% 30.25 in 1.2 mi East 6.9 mph - 0.00 in Snow Light Snow
11:24 AM 3.2 °F -10.3 °F -2.2 °F 78% 30.24 in 2.0 mi East 8.1 mph - 0.01 in Snow Light Snow
11:27 AM 3.2 °F -10.3 °F -2.2 °F 78% 30.24 in 1.8 mi East 8.1 mph - 0.01 in Snow Light Snow
11:48 AM 5.0 °F -6.9 °F -0.4 °F 78% 30.22 in 2.0 mi East 6.9 mph - 0.01 in Snow Light Snow
11:53 AM 3.9 °F -9.4 °F -0.9 °F 80% 30.34 in 2.0 mi East 8.1 mph - 0.02 in Snow Light Snow
12:07 PM 5.0 °F -6.9 °F -0.4 °F 78% 30.20 in 1.5 mi ESE 6.9 mph - 0.00 in Snow Light Snow
12:45 PM 6.8 °F -4.8 °F 1.4 °F 79% 30.17 in 2.5 mi ESE 6.9 mph - 0.01 in Snow Light Snow
12:53 PM 6.1 °F -4.3 °F 1.0 °F 80% 30.30 in 2.0 mi ESE 5.8 mph - 0.01 in Snow Light Snow
1:00 PM 6.8 °F -0.1 °F 1.4 °F 79% 30.17 in 1.2 mi ESE 3.5 mph - 0.00 in Snow Light Snow
1:17 PM 6.8 °F -3.5 °F 1.4 °F 79% 30.16 in 2.5 mi ESE 5.8 mph - 0.00 in Snow Light Snow
1:35 PM 6.8 °F -3.5 °F 1.4 °F 79% 30.15 in 3.0 mi ESE 5.8 mph - 0.00 in Snow Light Snow
1:39 PM 8.6 °F -2.6 °F 1.4 °F 73% 30.15 in 1.8 mi ESE 6.9 mph - 0.00 in Snow Light Snow
1:53 PM 7.0 °F -4.5 °F 1.9 °F 80% 30.26 in 1.0 mi ESE 6.9 mph - 0.01 in Snow Light Snow
2:26 PM 8.6 °F 0.1 °F 3.2 °F 79% 30.13 in 2.0 mi ESE 4.6 mph - 0.01 in Snow Light Snow
2:39 PM 8.6 °F -1.3 °F 3.2 °F 79% 30.12 in 1.5 mi ESE 5.8 mph - 0.01 in Snow Light Snow
2:46 PM 8.6 °F -1.3 °F 3.2 °F 79% 30.11 in 3.0 mi SE 5.8 mph - 0.01 in Snow Light Snow
2:53 PM 8.1 °F -3.2 °F 3.0 °F 80% 30.22 in 4.0 mi SSE 6.9 mph - 0.01 in   Haze
3:10 PM 8.6 °F -4.7 °F 1.4 °F 73% 30.10 in 8.0 mi SE 9.2 mph - N/A   Overcast
3:53 PM 8.1 °F -0.5 °F 1.9 °F 76% 30.20 in 2.5 mi ESE 4.6 mph - 0.00 in Snow Light Snow
4:07 PM 8.6 °F -1.3 °F 3.2 °F 79% 30.08 in 1.5 mi ESE 5.8 mph - 0.00 in Snow Light Snow
4:18 PM 8.6 °F -1.3 °F 3.2 °F 79% 30.08 in 2.5 mi ESE 5.8 mph - 0.00 in Snow Light Snow
4:30 PM 8.6 °F 2.0 °F 3.2 °F 79% 30.09 in 3.0 mi ESE 3.5 mph - 0.00 in   Haze
4:53 PM 7.0 °F 0.1 °F 1.9 °F 80% 30.21 in 5.0 mi ESE 3.5 mph - 0.00 in   Haze
5:12 PM 6.8 °F -0.1 °F 1.4 °F 79% 30.08 in 5.0 mi East 3.5 mph - 0.00 in   Haze
5:26 PM 6.8 °F - 1.4 °F 79% 30.08 in 9.0 mi Calm Calm - 0.00 in   Overcast
5:53 PM 5.0 °F - 1.0 °F 84% 30.18 in 7.0 mi Calm Calm - 0.00 in   Overcast
6:53 PM 5.0 °F - 1.9 °F 87% 30.18 in 3.0 mi Calm Calm - 0.00 in Snow Light Snow
7:11 PM 3.2 °F - 1.4 °F 92% 30.06 in 3.0 mi Calm Calm - 0.00 in Snow Light Snow
7:19 PM 3.2 °F - 1.4 °F 92% 30.06 in 2.5 mi Calm Calm - 0.00 in Snow Light Snow
7:30 PM 3.2 °F - -0.4 °F 85% 30.06 in 4.0 mi Calm Calm - 0.00 in Snow Light Snow
7:45 PM 3.2 °F - -0.4 °F 85% 30.05 in 6.0 mi Calm Calm - 0.00 in   Overcast
7:53 PM 1.9 °F - -0.9 °F 88% 30.17 in 5.0 mi Calm Calm - 0.00 in   Overcast
8:01 PM 1.4 °F - -2.2 °F 85% 30.05 in 5.0 mi Calm Calm - N/A   Overcast
8:53 PM 1.9 °F - -0.9 °F 88% 30.15 in 5.0 mi Calm Calm - N/A   Overcast
9:53 PM 3.0 °F - -0.0 °F 87% 30.14 in 4.0 mi Calm Calm - 0.00 in Snow Light Snow
10:04 PM 3.2 °F - -0.4 °F 85% 30.02 in 1.8 mi Calm Calm - 0.00 in Snow Light Snow
10:18 PM 3.2 °F - -0.4 °F 85% 30.02 in 1.8 mi Calm Calm - 0.00 in Snow Light Snow
10:53 PM 3.9 °F - -0.0 °F 84% 30.13 in 1.5 mi Calm Calm - 0.01 in Snow Light Snow
10:58 PM 3.2 °F - -0.4 °F 85% 30.02 in 3.0 mi Calm Calm - 0.00 in Snow Light Snow
11:17 PM 3.2 °F - -0.4 °F 85% 30.01 in 5.0 mi Calm Calm - 0.00 in   Overcast
11:35 PM 3.2 °F - -0.4 °F 85% 30.01 in 1.8 mi Calm Calm - 0.00 in Snow Light Snow
11:48 PM 3.2 °F - -0.4 °F 85% 30.01 in 2.0 mi Calm Calm - 0.00 in Snow Light Snow
11:53 PM 1.9 °F - -0.9 °F 88% 30.11 in 2.5 mi Calm Calm - 0.00 in Snow Light Snow